KC0VVH Weather Reports


time (UTC)temp
F
wind
direction
speed
knots
gust
knots
rain 1hr
in
rain 24hr
in
rain mn
in
humidity
%
barometer
mb
20260508202715 82 333 2.6 12.2 0.00 0.00 0.00 12 1017.9
20260508201815 82 24 4.3 11.3 0.00 0.00 0.00 15 1017.9
20260508200936 82 35 4.3 11.3 0.00 0.00 0.00 14 1017.9
20260508200036 81 20 4.3 10.4 0.00 0.00 0.00 15 1017.9
20260508195403 81 11 4.3 11.3 0.00 0.00 0.00 15 1017.9
20260508194515 80 8 3.5 12.2 0.00 0.00 0.00 15 1017.9
20260508193615 80 54 3.5 8.7 0.00 0.00 0.00 17 1017.9
20260508192715 81 19 3.5 9.6 0.00 0.00 0.00 16 1017.9
20260508191815 80 9 3.5 10.4 0.00 0.00 0.00 17 1017.9
20260508190936 79 32 4.3 10.4 0.00 0.00 0.00 18 1017.9
20260508190015 78 18 1.7 7.0 0.00 0.00 0.00 20 1017.9
20260508185415 78 12 2.6 7.0 0.00 0.00 0.00 20 1017.9
20260508184515 78 51 2.6 5.2 0.00 0.00 0.00 22 1017.9
20260508183615 76 54 2.6 5.2 0.00 0.00 0.00 23 1017.9
20260508182736 75 39 1.7 5.2 0.00 0.00 0.00 23 1017.9
20260508181815 76 13 2.6 7.8 0.00 0.00 0.00 21 1017.9
20260508180915 77 31 3.5 7.8 0.00 0.00 0.00 22 1017.9
20260508180036 76 18 2.6 7.0 0.00 0.00 0.00 22 1017.9
20260508175415 75 29 2.6 7.0 0.00 0.00 0.00 22 1017.9
20260508174515 74 37 1.7 7.0 0.00 0.00 0.00 21 1017.9
20260508173615 74 39 1.7 7.0 0.00 0.00 0.00 21 1017.9
20260508172715 74 61 1.7 7.0 0.00 0.00 0.00 22 1017.9
20260508171815 74 61 2.6 7.8 0.00 0.00 0.00 22 1017.9
20260508170915 73 63 2.6 7.8 0.00 0.00 0.00 22 1017.9
20260508170015 73 66 1.7 7.0 0.00 0.00 0.00 21 1017.9
20260508165415 72 69 0.9 7.0 0.00 0.00 0.00 24 1017.9
20260508164515 71 71 1.7 5.2 0.00 0.00 0.00 23 1017.9
20260508163603 71 71 0.9 5.2 0.00 0.00 0.00 26 1017.9
20260508162703 70 71 0.9 5.2 0.00 0.00 0.00 27 1017.9
20260508161815 69 71 0.0 3.5 0.00 0.00 0.00 28 1017.9
20260508160915 68 69 0.9 4.3 0.00 0.00 0.00 28 1017.9
20260508160015 67 68 0.9 3.5 0.00 0.00 0.00 29 1017.9
20260508155415 67 68 0.9 3.5 0.00 0.00 0.00 30 1017.9
20260508154515 66 68 1.7 4.3 0.00 0.00 0.00 30 1017.9
20260508153636 65 70 2.6 7.0 0.00 0.00 0.00 31 1017.9
20260508152715 64 72 1.7 6.1 0.00 0.00 0.00 31 1017.9
20260508151815 63 118 0.9 7.0 0.00 0.00 0.00 32 1017.9
20260508150915 63 105 1.7 5.2 0.00 0.00 0.00 32 1017.9
20260508150003 63 66 3.5 9.6 0.00 0.00 0.00 33 1017.9
20260508145403 63 62 1.7 5.2 0.00 0.00 0.00 34 1017.9
20260508144536 62 48 3.5 8.7 0.00 0.00 0.00 34 1017.9
20260508143603 62 50 3.5 7.8 0.00 0.00 0.00 35 1017.9
20260508142715 61 49 1.7 7.8 0.00 0.00 0.00 36 1017.9
20260508141803 59 180 0.0 5.2 0.00 0.00 0.00 38 1017.9
20260508140915 58 60 0.0 2.6 0.00 0.00 0.00 39 1017.9
20260508140015 58 60 1.7 4.3 0.00 0.00 0.00 43 1017.9
20260508135415 57 60 1.7 4.3 0.00 0.00 0.00 43 1017.9
20260508134515 57 48 2.6 6.1 0.00 0.00 0.00 41 1017.9
20260508133615 58 292 0.0 2.6 0.00 0.00 0.00 40 1017.9
20260508132715 57 0 0.0 0.0 0.00 0.00 0.00 42 1017.9
20260508131815 56 0 0.0 0.0 0.00 0.00 0.00 43 1017.9
20260508130903 54 0 0.0 0.0 0.00 0.00 0.00 45 1017.9
20260508130015 53 0 0.0 0.0 0.00 0.00 0.00 44 1017.9
20260508125424 52 0 0.0 0.0 0.00 0.00 0.00 44 1017.9
20260508124503 50 284 0.0 1.7 0.00 0.00 0.00 45 1017.9
20260508123603 49 0 0.0 0.0 0.00 0.00 0.00 47 1017.9
20260508122715 47 0 0.0 0.0 0.00 0.00 0.00 49 1017.9
20260508121815 48 0 0.0 0.0 0.00 0.00 0.00 50 1017.9
20260508120903 48 284 0.0 1.7 0.00 0.00 0.00 49 1017.9
20260508120036 47 0 0.0 0.0 0.00 0.00 0.00 52 1017.9
20260508115403 47 0 0.0 0.0 0.00 0.00 0.00 56 1017.9
20260508114515 47 0 0.0 0.0 0.00 0.00 0.00 57 1017.9
20260508113603 48 0 0.0 0.0 0.00 0.00 0.00 56 1017.9
20260508112703 48 0 0.0 0.0 0.00 0.00 0.00 56 1017.9
20260508111803 49 0 0.0 0.0 0.00 0.00 0.00 57 1017.9
20260508110915 49 0 0.0 0.0 0.00 0.00 0.00 54 1017.9
20260508110015 49 0 0.0 0.0 0.00 0.00 0.00 48 1017.9
20260508105424 50 0 0.0 0.0 0.00 0.00 0.00 48 1017.9
20260508104503 50 0 0.0 0.0 0.00 0.00 0.00 47 1017.9
20260508103615 51 0 0.0 0.0 0.00 0.00 0.00 46 1017.9
20260508102703 52 0 0.0 0.0 0.00 0.00 0.00 45 1017.9
20260508101815 52 0 0.0 0.0 0.00 0.00 0.00 44 1017.9
20260508100903 53 0 0.0 0.0 0.00 0.00 0.00 42 1017.9
20260508100015 52 284 0.0 0.9 0.00 0.00 0.00 44 1017.9
20260508095415 52 0 0.0 0.0 0.00 0.00 0.00 44 1017.9
20260508094515 52 0 0.0 0.0 0.00 0.00 0.00 42 1017.9
20260508093615 52 0 0.0 0.0 0.00 0.00 0.00 42 1017.9
20260508092736 52 0 0.0 0.0 0.00 0.00 0.00 43 1017.9
20260508091815 52 0 0.0 0.0 0.00 0.00 0.00 43 1017.9
20260508090924 53 0 0.0 0.0 0.00 0.00 0.00 42 1017.9
20260508090015 54 0 0.0 0.0 0.00 0.00 0.00 41 1017.9
20260508085415 54 0 0.0 0.0 0.00 0.00 0.00 40 1017.9
20260508084515 54 0 0.0 0.0 0.00 0.00 0.00 39 1017.9
20260508083615 55 0 0.0 0.0 0.00 0.00 0.00 37 1017.9
20260508082715 56 0 0.0 0.0 0.00 0.00 0.00 34 1017.9
20260508081803 57 0 0.0 0.0 0.00 0.00 0.00 33 1017.9
20260508080915 57 286 0.0 2.6 0.00 0.00 0.00 33 1017.9
20260508080036 57 286 0.0 2.6 0.00 0.00 0.00 32 1017.9
20260508075415 57 0 0.0 0.0 0.00 0.00 0.00 33 1017.9
20260508074515 58 0 0.0 0.0 0.00 0.00 0.00 32 1017.9
20260508073615 58 294 0.9 3.5 0.00 0.00 0.00 32 1017.9
20260508072703 58 0 0.0 0.0 0.00 0.00 0.00 33 1017.9
20260508071836 59 0 0.0 0.0 0.00 0.00 0.00 32 1017.9
20260508070915 60 0 0.0 0.0 0.00 0.00 0.00 30 1017.9
20260508070003 61 300 0.0 3.5 0.00 0.00 0.00 30 1017.9
20260508065436 61 301 0.0 3.5 0.00 0.00 0.00 28 1017.9
20260508064503 60 305 0.0 1.7 0.00 0.00 0.00 29 1017.9
20260508063636 61 0 0.0 0.0 0.00 0.00 0.00 30 1017.9
20260508062715 62 330 0.0 3.5 0.00 0.00 0.00 30 1017.9
20260508061815 63 348 0.9 6.1 0.00 0.00 0.00 30 1017.9
20260508060924 64 288 0.9 6.1 0.00 0.00 0.00 27 1017.9
20260508060003 65 233 0.9 4.3 0.00 0.00 0.00 25 1017.9
20260508055415 65 240 2.6 8.7 0.00 0.00 0.00 24 1017.9
20260508054503 65 249 3.5 7.8 0.00 0.00 0.00 24 1017.9
20260508053615 66 245 2.6 7.0 0.00 0.00 0.00 24 1017.9
20260508052715 66 238 0.9 4.3 0.00 0.00 0.00 24 1017.9
20260508051803 66 239 0.9 8.7 0.00 0.00 0.00 24 1017.9
20260508050915 66 237 1.7 7.8 0.00 0.00 0.00 24 1017.9
20260508050015 66 234 1.7 7.8 0.00 0.00 0.00 24 1017.9
20260508045415 66 222 0.9 6.1 0.00 0.00 0.00 25 1017.9
20260508044515 66 213 1.7 5.2 0.00 0.00 0.00 25 1017.9
20260508043615 65 213 0.9 3.5 0.00 0.00 0.00 25 1017.9
20260508042736 65 213 0.9 4.3 0.00 0.00 0.00 25 1017.9
20260508041824 65 0 0.0 0.0 0.00 0.00 0.00 26 1017.9
20260508040915 65 212 0.0 1.7 0.00 0.00 0.00 25 1017.9
20260508040015 65 212 0.0 1.7 0.00 0.00 0.00 25 1017.9
20260508035403 65 0 0.0 0.0 0.00 0.00 0.00 25 1017.9
20260508034524 65 213 0.0 3.5 0.00 0.00 0.00 25 1017.9
20260508033636 65 0 0.0 0.0 0.00 0.00 0.00 26 1017.9
20260508032702 65 0 0.0 0.0 0.00 0.00 0.00 26 1017.9
20260508031803 65 0 0.0 0.0 0.00 0.00 0.00 27 1017.9
20260508030915 66 0 0.0 0.0 0.00 0.00 0.00 27 1017.9
20260508030024 66 0 0.0 0.0 0.00 0.00 0.00 27 1017.9
20260508025415 66 0 0.0 0.0 0.00 0.00 0.00 27 1017.9
20260508024515 67 0 0.0 0.0 0.00 0.00 0.00 25 1017.9
20260508023603 68 0 0.0 0.0 0.00 0.00 0.00 25 1017.9
20260508022703 68 0 0.0 0.0 0.00 0.00 0.00 24 1017.9
20260508021815 68 212 0.0 1.7 0.00 0.00 0.00 23 1017.9
20260508020915 68 213 0.0 2.6 0.00 0.00 0.00 23 1017.9
20260508020015 69 0 0.0 0.0 0.00 0.00 0.00 23 1017.9
20260508015415 69 0 0.0 0.0 0.00 0.00 0.00 23 1017.9
20260508014515 69 0 0.0 0.9 0.00 0.00 0.00 23 1017.9
20260508013615 69 160 0.0 4.3 0.00 0.00 0.00 23 1017.9
20260508012715 69 44 0.9 3.5 0.00 0.00 0.00 23 1017.9
20260508011803 70 44 0.9 4.3 0.00 0.00 0.00 22 1017.9
20260508010936 71 42 0.0 3.5 0.00 0.00 0.00 22 1017.9
20260508010003 71 41 0.9 4.3 0.00 0.00 0.00 21 1017.9
20260508005436 71 41 0.9 4.3 0.00 0.00 0.00 21 1017.9
20260508004515 72 40 0.0 3.5 0.00 0.00 0.00 20 1017.9
20260508003615 73 40 0.9 3.5 0.00 0.00 0.00 20 1017.9
20260508002736 74 40 0.9 3.5 0.00 0.00 0.00 20 1017.9
20260508001803 74 40 0.9 3.5 0.00 0.00 0.00 19 1017.9
20260508000903 75 40 0.0 3.5 0.00 0.00 0.00 19 1017.9
20260508000003 74 40 0.9 4.3 0.00 0.00 0.00 18 1017.9
20260507235436 74 40 0.9 4.3 0.00 0.00 0.00 19 1017.9
20260507234515 73 38 1.7 4.3 0.00 0.00 0.00 19 1017.9
20260507233603 73 38 0.9 2.6 0.00 0.00 0.00 19 1017.9
20260507232715 74 38 0.9 3.5 0.00 0.00 0.00 18 1017.9
20260507231803 74 38 0.0 4.3 0.00 0.00 0.00 19 1017.9
20260507230915 74 34 1.7 7.8 0.00 0.00 0.00 19 1017.9
20260507230015 75 38 2.6 6.1 0.00 0.00 0.00 18 1017.9
20260507225415 75 40 1.7 6.1 0.00 0.00 0.00 18 1017.9
20260507224524 75 36 0.9 5.2 0.00 0.00 0.00 18 1017.9
20260507223603 75 28 0.9 4.3 0.00 0.00 0.00 18 1017.9
20260507222736 74 33 1.7 7.0 0.00 0.00 0.00 18 1017.9
20260507221815 73 46 0.0 4.3 0.00 0.00 0.00 19 1017.9
20260507220915 74 37 1.7 4.3 0.00 0.00 0.00 17 1017.9
20260507220015 74 45 2.6 7.8 0.00 0.00 0.00 18 1017.9
20260507215424 73 57 2.6 6.1 0.00 0.00 0.00 19 1017.9
20260507214503 72 60 1.7 6.1 0.00 0.00 0.00 19 1017.9
20260507213615 73 31 0.9 5.2 0.00 0.00 0.00 19 1017.9
20260507212715 72 32 2.6 7.0 0.00 0.00 0.00 19 1017.9
20260507211815 72 29 0.9 4.3 0.00 0.00 0.00 20 1017.9
20260507210903 72 9 0.9 7.0 0.00 0.00 0.00 19 1017.9
20260507210015 71 8 1.7 7.8 0.00 0.00 0.00 19 1017.9
20260507205403 71 11 1.7 7.8 0.00 0.00 0.00 19 1017.9
20260507204515 70 42 2.6 7.0 0.00 0.00 0.00 21 1017.9
20260507203603 69 43 1.7 6.1 0.00 0.00 0.00 21 1017.9